Location: ???????
(55.4362°N, 38.1183°E)
Time: 02:09:20
(UTC+00:00)

METEOR M2 - Pass Details

Date: 04 December 2021
Orbit: 818 x 827 km, 98.4° (Epoch: 28 January)

Event Time Altitude Azimuth Distance (km) Brightness Sun altitude
Rises 17:42:05 0° 224° (SW) 3,360 ? -38.4°
Reaches altitude 10° 17:45:53 10° 251° (WSW) 2,432 ? -39.0°
Maximum altitude 17:48:18 13° 278° (W) 2,225 ? -39.3°
Drops below altitude 10° 17:50:44 10° 306° (NW) 2,437 ? -39.6°
Sets 17:54:35 0° 333° (NNW) 3,375 ? -40.1°
